Back to catalog

FLOCK 4BE 32

AliveScienceSSO
NORAD 60497·PAYLOAD·🇺🇸 United States

Launched Aug 16, 2024 from Vandenberg Space Force Base

Loading…

Next Passes (next 24 hours)

TLE

FreshSource: CelesTrak SupGP

Epoch: Sep 14, 2026, 14:44 UTC

1 60497C 24149AU  26257.61422454  .00048265  00000+0  10123-2 0  2576
2 60497  97.3668 342.6745 0002299 320.1563 226.3134 15.45379791    13

Track FLOCK 4BE 32 in real time with AllMySat

Download on the App Store